DW5490 Weather Reports


Display with metric or nautical units.
time (UTC)temp
F
wind
direction
speed
MPH
gust
MPH
rain 1hr
in
rain 24hr
in
rain mn
in
humidity
%
barometer
mb
20260507040027 58 273 4.0 7.0 0.00 0.00 0.00 98 1006.1
20260507034524 57 216 4.0 13.0 0.00 0.00 0.00 98 1006.3
20260507033105 57 236 4.0 12.0 0.00 0.00 0.00 97 1006.2
20260507031609 57 232 5.0 10.0 0.00 0.00 0.00 98 1005.9
20260507030058 57 241 5.0 10.0 0.00 0.00 0.00 98 1005.8
20260507024601 57 220 6.0 14.0 0.00 0.00 0.00 97 1005.8
20260507023002 56 240 8.0 16.0 0.00 0.00 0.00 97 1005.8
20260507021549 56 258 5.0 13.0 0.00 0.00 0.00 97 1005.7
20260507020035 56 247 3.0 13.0 0.00 0.00 0.00 97 1005.8
20260507014555 56 198 8.0 17.0 0.00 0.00 0.00 97 1006.0
20260507013057 56 252 6.0 14.0 0.00 0.00 0.00 97 1006.3
20260507011554 56 253 6.0 14.0 0.00 0.00 0.00 97 1006.3
20260507010113 56 238 7.0 15.0 0.00 0.00 0.00 97 1006.4
20260507004551 56 210 8.0 19.0 0.00 0.00 0.00 97 1006.3
20260507003056 56 242 8.0 18.0 0.00 0.00 0.00 97 1006.3
20260507001557 56 255 6.0 15.0 0.00 0.00 0.00 97 1006.4
20260507000039 56 271 8.0 15.0 0.00 0.00 0.00 97 1006.2
20260506234529 56 200 6.0 16.0 0.00 0.00 0.00 97 1006.0
20260506233016 56 215 10.0 17.0 0.00 0.00 0.00 96 1006.1
20260506231525 56 199 7.0 13.0 0.00 0.00 0.00 96 1006.4
20260506230031 56 195 5.0 13.0 0.00 0.00 0.00 96 1006.3
20260506224544 57 225 5.0 14.0 0.00 0.00 0.00 96 1006.2
20260506223054 57 207 8.0 16.0 0.00 0.00 0.00 96 1006.4
20260506221524 57 198 7.0 18.0 0.00 0.00 0.00 95 1006.7
20260506220115 57 236 9.0 17.0 0.00 0.00 0.00 94 1006.7
20260506214604 58 215 7.0 16.0 0.00 0.00 0.00 94 1006.8
20260506213113 58 225 6.0 17.0 0.00 0.00 0.00 94 1006.9
20260506211554 58 173 7.0 18.0 0.00 0.00 0.00 94 1006.9
20260506210115 59 234 6.0 14.0 0.00 0.00 0.00 93 1007.0
20260506204504 59 223 9.0 20.0 0.00 0.00 0.00 92 1007.2
20260506203101 59 240 8.0 17.0 0.00 0.00 0.00 90 1007.0
20260506201511 60 205 7.0 16.0 0.00 0.00 0.00 89 1007.2
20260506200024 61 255 4.0 17.0 0.00 0.00 0.00 87 1007.2
20260506194522 62 228 7.0 15.0 0.00 0.00 0.00 84 1007.4
20260506193009 62 245 9.0 17.0 0.00 0.00 0.00 82 1007.5
20260506191503 63 225 9.0 17.0 0.00 0.00 0.00 78 1007.5
20260506190002 64 196 8.0 18.0 0.00 0.00 0.00 78 1007.4
20260506184606 64 157 10.0 18.0 0.00 0.00 0.00 77 1007.5
20260506183049 65 259 11.0 21.0 0.00 0.00 0.00 76 1007.7
20260506181550 65 207 9.0 18.0 0.00 0.00 0.00 75 1007.7
20260506180048 65 220 10.0 20.0 0.00 0.00 0.00 75 1008.1
20260506174544 67 216 9.0 24.0 0.00 0.00 0.00 73 1008.3
20260506173035 68 197 11.0 21.0 0.00 0.00 0.00 71 1008.4
20260506171522 67 213 10.0 19.0 0.00 0.00 0.00 72 1008.1
20260506170118 67 255 9.0 22.0 0.00 0.00 0.00 72 1008.3
20260506164540 68 155 7.0 14.0 0.00 0.00 0.00 72 1008.6
20260506163122 67 211 8.0 21.0 0.00 0.00 0.00 72 1008.7
20260506161611 68 213 7.0 23.0 0.00 0.00 0.00 71 1008.8
20260506160045 68 254 11.0 23.0 0.00 0.00 0.00 71 1009.1
20260506154553 68 213 11.0 22.0 0.00 0.00 0.00 71 1009.3
20260506153049 68 176 9.0 22.0 0.00 0.00 0.00 72 1009.7
20260506151534 68 195 8.0 18.0 0.00 0.00 0.00 71 1009.7
20260506150036 68 225 7.0 23.0 0.00 0.00 0.00 71 1009.7
20260506144529 67 244 10.0 17.0 0.00 0.00 0.00 72 1009.7
20260506143043 67 188 7.0 22.0 0.00 0.00 0.00 73 1009.6
20260506141628 67 223 9.0 19.0 0.00 0.00 0.00 74 1009.5
20260506140013 66 209 9.0 23.0 0.00 0.00 0.00 75 1009.4
20260506134505 66 196 10.0 20.0 0.00 0.00 0.00 75 1009.9
20260506133058 64 202 11.0 20.0 0.00 0.00 0.00 79 1010.2
20260506131604 63 255 8.0 26.0 0.00 0.00 0.00 80 1010.2
20260506130002 62 213 9.0 17.0 0.00 0.00 0.00 81 1010.2
20260506124604 61 243 11.0 18.0 0.00 0.00 0.00 83 1010.2
20260506123044 61 240 8.0 18.0 0.00 0.00 0.00 84 1010.1
20260506121552 60 190 9.0 17.0 0.00 0.00 0.00 86 1010.2
20260506120055 59 189 7.0 15.0 0.00 0.00 0.00 87 1010.6
20260506114604 59 179 6.0 20.0 0.00 0.00 0.00 88 1010.7
20260506113044 59 253 8.0 14.0 0.00 0.00 0.00 89 1010.7
20260506111557 58 219 9.0 19.0 0.00 0.00 0.00 90 1010.5
20260506110109 57 197 6.0 15.0 0.00 0.00 0.00 91 1010.7
20260506104603 57 228 6.0 13.0 0.00 0.00 0.00 91 1010.8
20260506103049 57 220 6.0 11.0 0.00 0.00 0.00 91 1010.7
20260506101519 57 184 3.0 13.0 0.00 0.00 0.00 90 1010.6
20260506100025 57 246 8.0 17.0 0.00 0.00 0.00 90 1010.5
20260506094509 57 207 7.0 19.0 0.00 0.00 0.00 89 1010.5
20260506093056 58 182 7.0 16.0 0.00 0.00 0.00 89 1010.3
20260506091524 58 264 7.0 17.0 0.00 0.00 0.00 89 1010.3
20260506090029 58 218 6.0 15.0 0.00 0.00 0.00 88 1010.5
20260506084509 58 228 7.0 19.0 0.00 0.00 0.00 88 1010.6
20260506083017 58 245 6.0 16.0 0.00 0.00 0.00 87 1010.6
20260506081508 59 194 9.0 18.0 0.00 0.00 0.00 87 1010.5
20260506073015 59 178 10.0 19.0 0.00 0.00 0.00 84 1010.3
20260506071513 59 244 11.0 21.0 0.00 0.00 0.00 84 1010.3
20260506061607 60 211 10.0 21.0 0.00 0.00 0.00 81 1010.2
20260506050113 59 184 4.0 22.0 0.00 0.00 0.00 79 1010.8
20260506044600 60 209 6.0 18.0 0.00 0.00 0.00 78 1010.8
20260506043050 60 222 8.0 17.0 0.00 0.00 0.00 77 1010.7
20260506041519 60 231 5.0 15.0 0.00 0.00 0.00 76 1010.7